Temp_Advection
nan nan nan nan nan nan nan nan nan nan nan nan nan nan nan nan nan nan nan nan nan nan nan nan nan nan nan nan nan nan nan nan nan nan nan nan nan nan nan nan nan nan nan nan nan nan nan
nan 0 0 0 0 0 0 -0 -0 -0 -0 -0 -0 -0 -0 -0 -0 -0 -0 -0 -0 -0 -0 -0 0 0 0 -0 -0 -0 -0 0 0 0 0 0 0 0 -0 -0 -0 0 0 0 0 0 nan
nan 0 -0 -0 0 -0 0 -0 -0 -0 -0 -0 -0 -0 -0 -0 -0 -0 -0 -0 -0 -0 -0 -0 -0 -0 0 0 -0 -0 -0 -0 0 0 0 0 0 0 -0 -0 0 0 -0 0 -0 0 nan
nan 0 0 -0 -0 -0 -0 -0 -0 -0 -0 -0 -0 -0 -0 -0 -0 -0 -0 -0 -0 -0 -0 -0 -0 -0 0 0 0 -0 0 -0 -0 0 0 0 0 0 -0 0 0 0 -0 0 -0 -0 nan
nan 0 0 0 -0 -0 -0 -0 -0 -0 -0 -0 -0 -0 -0 -0 -0 -0 -0 -0 -0 -0 0 -0 -0 -0 -0 -0 -0 -0 0 0 -0 -0 0 0 0 0 0 -0 -0 -0 -0 -0 0 0 nan
nan 0 0 0 0 0 -0 -0 -0 -0 -0 -0 -0 -0 -0 -0 -0 -0 -0 -0 -0 -0 -0 -0 0 -0 -0 -0 -0 0 0 0 0 0 -0 0 -0 -0 -0 -0 -0 -0 -0 0 0 0 nan
nan -0 -0 0 0 -0 -0 -0 -0 -0 -0 -0 -0 -0 -0 -0 -0 -0 -1 -1 -1 -0 -1 0 0 0 -0 -0 0 0 0 0 0 -0 -0 -0 -0 -0 -0 0 0 -0 -0 0 0 -0 nan
nan 0 -0 -0 -0 0 -0 -0 -0 -0 -0 -0 -0 -0 -0 -0 -0 -0 -0 -1 -1 -0 -1 -1 1 0 -0 -0 -0 0 0 0 0 0 -0 -0 -0 -0 -0 0 0 -0 0 -0 -0 -0 nan
nan 0 0 0 -0 -0 0 0 -0 -0 -0 -0 -0 -0 -0 -0 -0 -0 -0 -0 0 0 -0 -0 0 -0 -0 -0 -0 0 0 0 0 -0 0 -0 0 0 -0 -0 0 0 0 -0 0 -0 nan
nan -0 0 0 0 -0 -0 -0 0 -0 -0 -0 -0 -0 -0 -0 -0 -0 -0 -0 0 0 -0 -0 -0 -0 -0 0 -0 0 0 0 -0 0 0 0 0 0 0 0 0 0 -0 -0 -0 -0 nan
nan -0 -0 -0 0 0 0 0 -0 -0 -0 -0 -0 -0 -0 -0 -0 -0 -0 -0 -0 -0 0 -0 0 -0 0 0 -0 0 0 0 0 0 -0 0 0 0 0 0 0 0 -0 -0 -0 -0 nan
nan -0 0 0 -1 -1 -0 -0 0 -0 -0 -0 -0 -0 -0 -0 -0 -0 -0 -0 -0 -0 -0 -0 0 -0 0 -0 -0 0 0 0 0 0 -0 0 0 0 0 -0 -0 0 -0 -0 -1 -0 nan
nan -0 -0 -0 -0 -1 -0 -0 -1 -1 -0 -0 -0 -0 -0 0 -0 0 -0 0 -0 0 -0 -0 -0 -0 -0 -0 0 0 0 0 0 0 0 0 0 0 0 -0 -0 -0 -0 0 0 0 nan
nan -0 -0 -0 -0 -0 -0 -0 -1 0 0 -1 -1 -0 0 -0 0 0 0 -0 0 -0 -0 0 -0 -0 -0 -0 0 -0 0 0 -0 -0 -0 0 -0 0 0 -0 -0 0 0 -0 -0 -0 nan
nan -0 -0 -0 -0 -0 0 0 -0 -1 -0 0 -0 -1 -1 -0 1 0 0 0 -0 -0 -0 0 -0 0 0 -0 0 -0 0 -0 -0 -0 -1 -0 -0 0 0 0 -0 -0 -0 -0 0 0 nan
nan -0 -0 -0 -0 -0 -0 -0 -0 -0 -0 -0 -0 -0 -1 -0 0 0 -0 -0 -1 -1 -0 -0 0 0 -0 -0 0 0 -0 -0 -0 -0 -0 -0 0 0 0 -0 -0 0 -0 -0 -0 -0 nan
nan 0 0 -0 -0 -0 -0 -0 -0 -0 -0 -0 -0 -0 -0 0 0 0 -0 -0 -1 -0 0 0 0 -0 -0 0 0 -0 -0 -0 -0 -0 0 -0 0 0 0 0 0 0 -0 -0 -0 -0 nan
nan 0 0 0 0 -0 -0 -0 -0 -0 -0 -0 0 -0 -0 1 0 -0 -0 -0 -0 -0 0 0 0 0 -0 -0 -0 0 -0 -1 -0 0 0 0 0 0 -0 -0 0 -0 -0 -0 -0 0 nan
nan 0 -0 0 0 0 -0 -0 -0 -0 -0 0 0 -0 -0 0 0 0 -0 0 1 1 1 1 0 0 0 1 -0 -1 -1 -1 1 -0 -0 -0 0 0 0 0 -0 0 0 -0 0 0 nan
nan -0 -0 -0 0 0 0 0 0 -0 -0 0 0 -0 -0 0 -0 -0 -1 -1 0 -1 -0 -1 -0 -0 -0 -0 -0 -0 -0 0 0 1 1 1 0 -1 -1 -0 -1 -0 -0 -0 0 -0 nan
nan -0 0 -0 0 0 0 0 -0 -0 -0 0 0 0 -0 -0 -0 -0 -0 -0 -0 -0 -0 -0 -0 -1 -0 -1 -1 0 -0 2 -0 -1 -0 1 0 -0 -1 -0 0 0 0 1 0 -1 nan
nan -0 -0 0 -0 0 0 0 0 0 0 0 -0 0 0 0 0 -0 0 0 -0 -0 -0 -0 -0 -0 -0 -0 -0 -1 -1 -0 -0 -0 -0 -0 -0 0 -1 -0 1 1 0 -0 -1 -0 nan
nan 0 -0 -0 -0 -0 0 0 0 0 0 0 -0 0 -0 -0 -0 -0 -0 -0 0 -0 0 0 -0 -0 0 -0 -0 -0 0 -0 -0 -0 -0 -0 -0 -0 -0 0 0 -0 -0 -1 -0 -0 nan
nan 0 -0 0 0 -0 -0 0 0 0 0 0 0 0 0 -0 -0 -0 -0 0 0 -0 -0 0 0 -0 -0 -0 -0 -0 -0 -0 -0 -0 0 -0 -0 -0 -0 0 -0 -0 -0 -0 -0 0 nan
nan 0 -0 -0 -0 -0 -0 0 0 0 0 0 0 0 0 0 -0 -0 -0 0 0 0 0 0 -0 -0 0 -0 -0 -0 -0 -0 -0 -0 -0 -0 -0 -0 -0 -0 -0 -0 -0 0 0 -0 nan
nan 0 -0 -0 -0 -0 -0 0 0 0 0 0 0 0 0 0 -0 -0 0 0 0 0 0 -0 -0 0 0 -0 -0 -0 -0 -0 0 0 -0 -0 -0 -0 0 -0 -0 -0 -0 -0 -0 0 nan
nan -0 -0 -0 -0 -0 -0 0 0 0 0 0 0 0 0 -0 -1 0 0 0 -0 -0 -0 0 0 0 0 -0 -0 -0 -0 -0 0 0 0 0 0 -0 -0 -0 0 -0 -1 0 -0 -1 nan
nan -0 -0 -0 0 -0 -0 -0 -0 0 0 0 0 0 0 0 -0 0 0 0 0 0 -0 0 -0 0 0 -0 0 -0 -0 0 -0 -0 0 0 0 0 -0 0 -0 -0 -0 0 -0 0 nan
nan nan nan nan nan nan nan nan nan nan nan nan nan nan nan nan nan nan nan nan nan nan nan nan nan nan nan nan nan nan nan nan nan nan nan nan nan nan nan nan nan nan nan nan nan nan nan
Wind_Speed
7 7 7 6 4 3 2 2 2 3 3 5 6 8 9 11 12 13 14 15 16 16 15 14 12 9 4 2 2 7 6 3 1 4 7 7 6 2 4 3 2 4 4 3 3 2 3
9 8 8 7 6 5 4 4 4 4 4 5 6 8 9 11 11 13 14 14 15 15 13 11 12 8 2 1 4 6 3 2 3 4 6 6 6 8 6 3 2 2 4 3 2 3 4
9 9 9 9 8 7 7 6 6 7 6 6 7 8 9 11 12 13 14 15 15 15 12 9 7 5 3 1 4 5 1 4 4 4 7 8 9 3 7 4 5 3 2 0 4 3 2
11 10 10 10 10 9 8 8 8 8 8 8 8 8 9 11 12 13 14 15 15 13 11 7 2 2 1 2 3 3 1 3 5 5 5 7 7 6 3 5 3 1 1 1 3 1 2
13 13 11 11 11 11 10 10 10 10 10 9 9 9 10 12 14 15 15 15 14 11 5 6 2 2 1 1 2 2 2 3 3 3 1 4 4 2 4 4 4 2 2 3 2 3 1
14 13 13 12 12 11 10 10 10 11 11 11 11 11 11 12 15 17 17 15 9 5 7 3 1 2 2 2 3 3 3 4 2 2 2 1 1 2 3 4 4 5 2 2 3 1 3
13 12 13 13 13 12 12 11 10 10 11 12 12 12 11 12 13 16 17 11 9 2 17 8 11 8 10 9 6 4 3 2 2 2 2 2 3 5 7 2 3 4 1 3 4 1 4
14 13 14 13 13 13 13 12 12 10 10 10 11 12 12 12 12 12 12 10 8 8 9 17 14 13 11 8 3 6 4 4 3 3 2 4 4 2 7 5 3 2 1 5 2 1 3
18 18 19 17 16 16 15 14 14 12 11 10 10 11 11 9 9 8 9 12 12 13 4 5 5 3 4 5 3 7 5 4 3 3 4 3 4 4 3 2 2 2 4 4 4 5 3
21 21 20 20 17 15 16 16 17 16 14 12 12 11 10 8 7 5 5 10 12 12 4 6 1 1 2 3 2 5 5 3 3 4 5 2 4 3 1 3 5 2 1 2 2 5 3
22 23 23 26 23 19 16 19 20 21 18 15 14 12 11 8 7 7 6 7 9 4 4 3 2 1 2 3 1 1 4 2 1 4 6 5 8 5 3 3 4 4 3 3 2 1 5
20 22 22 21 23 23 24 27 26 26 23 20 16 15 12 10 10 7 4 5 3 5 6 2 2 1 1 4 2 3 2 2 1 0 1 2 3 5 7 3 5 5 3 3 4 3 2
5 12 16 22 23 24 23 23 24 26 22 21 18 17 15 11 8 4 3 3 4 4 3 3 3 4 4 5 3 5 4 4 5 4 4 1 3 1 3 4 3 3 5 3 4 2 5
6 7 8 7 7 15 20 20 21 20 19 20 20 18 18 16 15 10 4 3 6 7 6 2 4 5 4 5 5 7 3 3 7 2 3 5 5 9 5 5 7 6 7 5 6 3 4
7 7 8 8 8 3 6 10 9 15 20 20 19 20 17 18 16 14 9 7 6 7 5 4 1 4 4 4 5 5 7 5 8 14 9 7 6 3 3 1 4 5 4 3 2 1 2
9 7 6 6 5 7 6 3 4 6 7 9 15 19 20 16 14 18 8 14 8 10 2 3 6 7 6 5 7 7 8 6 5 14 8 6 3 3 2 3 1 3 2 3 2 3 6
16 13 10 6 8 7 5 8 5 3 6 6 4 4 9 14 17 17 12 8 16 24 14 6 7 6 5 3 7 6 5 5 8 3 12 5 4 2 5 8 11 2 3 3 3 4 5
16 16 18 12 12 5 4 5 6 8 5 4 1 3 4 22 15 7 15 4 16 10 30 22 15 11 6 8 11 9 10 9 6 9 8 6 3 5 13 4 8 6 12 11 5 7 4
19 20 18 17 15 13 7 7 8 7 6 3 2 4 4 7 3 9 3 9 26 12 13 8 15 14 19 18 14 18 22 22 16 11 9 7 2 3 5 4 3 8 8 8 0 3 16
18 17 17 16 15 13 11 8 1 3 1 5 3 1 2 7 4 2 4 4 2 8 2 6 4 5 9 18 21 18 24 9 9 22 23 13 9 11 17 7 6 6 10 19 19 9 15
19 19 20 17 15 15 14 13 7 4 4 2 2 1 1 1 2 2 0 2 4 6 7 9 3 6 3 6 13 24 20 19 5 5 3 11 12 19 28 28 9 7 10 22 26 29 17
20 18 17 20 17 16 15 17 14 10 8 6 3 3 2 1 2 0 2 1 3 2 2 3 2 5 3 3 3 5 5 3 3 5 4 4 6 10 26 21 12 15 14 8 23 26 26
23 21 18 16 18 18 16 18 18 15 14 8 8 8 4 4 3 3 3 4 2 1 4 4 2 4 4 1 12 15 11 8 5 2 3 3 3 1 8 3 5 8 21 22 16 15 14
22 21 19 17 16 18 19 18 19 19 18 18 13 8 5 2 5 4 4 8 7 7 2 5 4 2 1 13 18 12 13 17 16 13 13 3 2 2 2 3 6 3 5 9 17 20 19
22 23 20 18 18 17 18 19 19 21 20 21 21 17 8 3 8 6 12 8 8 12 3 7 8 9 8 5 3 4 3 4 9 15 14 15 5 3 3 5 7 7 5 4 6 6 8
20 21 19 18 17 17 17 18 19 19 21 25 25 21 11 3 8 14 5 8 4 3 1 6 7 9 8 3 2 3 2 2 4 5 4 12 12 7 3 4 6 2 3 3 3 9 7
20 21 20 20 19 18 17 17 19 19 20 24 27 26 19 7 14 10 5 8 8 5 2 1 3 6 16 3 5 4 5 4 5 3 3 3 4 14 13 10 4 6 10 2 3 6 11
20 19 22 20 20 20 19 18 19 20 21 22 28 31 26 14 18 15 18 11 8 8 4 4 1 3 2 3 2 3 3 2 2 4 5 4 4 5 6 8 7 11 2 6 3 1 4
20 20 21 21 21 20 19 18 19 20 20 21 29 26 24 22 6 19 22 18 19 16 11 7 4 5 8 1 2 2 2 1 5 4 1 4 2 3 4 3 7 20 10 20 19 8 5
Wind_Direction
208 216 209 217 235 238 267 292 299 318 336 338 339 342 346 351 351 350 352 351 352 352 350 347 339 333 327 330 332 332 334 349 97 133 129 134 124 102 112 124 77 100 147 152 189 233 256
212 215 223 229 231 236 247 260 277 288 305 320 327 333 337 340 343 344 344 344 343 341 339 341 338 333 332 332 321 328 340 62 99 132 148 157 141 115 99 87 96 128 154 158 205 240 260
236 245 240 239 237 242 254 265 273 285 294 305 315 321 328 334 338 338 338 336 335 333 330 331 341 331 332 292 331 333 343 103 108 119 119 127 140 161 138 124 141 149 127 122 222 227 292
240 239 248 258 253 254 254 257 270 277 283 293 304 316 325 330 334 334 334 330 331 330 326 341 345 300 273 311 315 332 172 134 125 124 133 139 139 118 105 127 112 175 98 75 209 292 215
247 253 251 246 255 255 259 267 272 276 287 294 304 313 322 330 334 333 334 330 328 326 319 324 291 301 265 248 305 302 214 187 142 98 100 156 148 130 130 101 27 344 220 222 278 184 248
251 253 256 262 259 261 261 262 271 281 287 295 301 309 321 330 337 339 341 339 332 331 11 350 248 307 243 261 291 248 230 216 204 323 315 182 81 71 25 90 202 198 209 270 241 238 245
249 254 258 260 263 262 262 263 262 270 283 291 298 306 318 331 341 349 349 7 7 351 329 282 287 273 279 275 254 219 220 210 142 58 313 339 62 202 211 117 67 94 83 267 284 348 289
256 261 266 264 265 265 269 267 267 267 271 283 291 301 313 328 342 354 6 47 24 327 305 299 273 272 264 265 248 221 204 182 166 167 143 12 230 155 114 97 107 113 212 272 289 38 357
255 259 267 265 265 271 273 275 274 269 270 274 285 291 301 319 328 340 16 17 358 348 290 303 275 266 278 220 232 207 193 182 196 185 168 188 313 131 100 122 130 233 208 243 231 331 311
253 259 259 260 258 262 268 274 273 272 268 272 278 288 297 310 305 332 352 350 347 345 48 280 280 253 216 191 262 216 208 204 222 183 157 190 169 160 154 219 146 264 119 68 27 45 256
255 252 252 258 259 262 262 267 271 272 271 272 277 285 297 304 295 306 315 333 341 8 8 249 187 177 213 199 245 202 188 197 210 199 104 231 171 178 198 247 159 222 82 74 48 119 21
257 261 256 257 263 261 268 269 271 268 268 269 268 270 277 285 288 293 319 330 324 52 250 318 119 124 102 213 216 134 159 181 164 117 48 201 174 187 181 107 96 136 70 51 49 75 342
289 260 265 269 266 269 267 264 271 281 266 265 261 259 260 258 258 243 314 314 32 164 254 226 212 174 207 199 217 180 171 181 176 112 235 193 229 149 161 109 37 115 90 319 339 337 231
313 306 285 260 264 260 271 271 269 271 270 272 273 261 249 245 233 229 211 34 210 224 232 176 154 171 209 170 230 183 190 241 234 195 118 177 296 173 187 196 179 179 169 168 226 222 254
270 303 308 294 268 264 232 243 258 262 260 260 271 279 273 246 231 218 188 216 213 197 235 170 123 175 213 237 192 147 207 214 214 180 186 183 260 106 124 112 137 190 194 193 122 296 50
267 271 288 295 283 268 270 274 286 272 268 263 252 260 264 257 232 200 212 231 204 220 268 27 208 194 206 197 177 184 191 209 225 195 196 209 256 203 152 82 40 156 181 73 356 264 257
271 275 273 297 314 306 311 289 290 304 308 301 264 232 219 226 207 208 223 219 232 237 225 215 213 242 263 244 202 197 224 265 199 195 187 163 175 214 118 206 178 152 202 220 176 171 217
261 266 277 268 279 297 319 304 321 271 280 295 193 230 229 192 200 221 232 207 237 233 227 244 260 260 230 263 265 253 212 211 210 161 170 203 179 213 209 238 190 197 192 176 196 235 232
251 254 262 260 259 285 298 295 290 292 242 193 204 270 272 244 236 225 256 226 227 224 217 206 227 221 234 245 259 250 256 246 231 171 173 170 196 280 306 10 344 221 201 204 234 101 232
245 245 249 253 255 248 264 275 260 24 297 206 166 275 299 266 32 14 359 335 268 23 32 356 301 298 263 247 241 255 253 255 241 229 218 188 185 208 238 218 136 191 202 208 208 227 241
246 248 251 250 247 248 242 251 246 249 279 335 172 177 250 331 355 11 308 338 336 341 18 19 45 22 339 287 258 248 268 258 119 16 259 186 227 232 242 248 238 235 211 208 208 220 213
245 248 253 248 247 240 243 236 238 238 233 237 185 165 184 244 213 171 128 350 7 329 313 359 326 354 324 302 328 319 354 350 12 352 334 325 249 230 250 254 248 262 248 223 223 230 237
241 240 245 250 246 243 238 238 238 231 226 218 211 230 200 194 190 181 206 190 201 69 216 222 54 328 332 355 343 325 260 262 265 300 337 300 313 231 254 208 202 259 248 240 233 237 236
236 240 246 247 246 243 239 238 235 230 233 230 217 194 180 228 201 208 213 210 214 208 233 249 264 218 235 311 314 288 263 250 246 235 206 250 285 282 284 93 231 289 321 227 224 234 227
244 234 242 248 253 251 242 237 235 233 232 229 236 230 199 230 214 232 242 231 233 241 226 226 235 268 281 333 305 294 239 247 239 234 224 209 215 239 247 228 324 299 276 161 170 255 222
241 253 246 244 246 252 249 239 238 236 232 230 236 240 220 174 225 219 210 199 193 202 204 234 260 213 188 180 225 261 256 283 283 298 215 216 223 244 213 236 227 293 316 293 105 255 212
244 242 243 245 247 252 250 242 239 235 232 228 233 240 232 219 238 205 192 205 182 184 234 211 164 199 212 207 213 214 233 240 241 245 219 191 213 227 242 256 239 237 245 200 138 248 218
238 243 239 234 241 244 246 243 240 239 238 231 237 245 235 224 249 224 220 192 167 184 175 178 346 219 205 249 258 255 252 238 263 352 306 233 222 217 230 245 261 349 329 213 302 144 241
238 238 232 231 234 239 242 241 240 241 238 229 232 236 222 230 239 226 224 230 228 218 183 190 223 155 198 192 305 341 305 280 267 270 279 256 222 312 264 257 321 316 279 311 320 310 286
Height
1550 1551 1551 1552 1553 1553 1553 1553 1553 1553 1552 1552 1552 1551 1549 1548 1546 1545 1543 1541 1539 1537 1535 1533 1531 1530 1528 1527 1527 1526 1525 1524 1523 1522 1522 1523 1522 1524 1527 1528 1528 1529 1531 1532 1533 1533 1533
1548 1549 1549 1550 1551 1551 1552 1552 1553 1552 1551 1550 1550 1549 1548 1547 1545 1543 1541 1539 1537 1536 1534 1531 1530 1528 1528 1529 1527 1525 1525 1524 1523 1523 1523 1523 1523 1523 1525 1527 1530 1530 1530 1530 1532 1532 1531
1547 1548 1548 1549 1549 1549 1550 1551 1551 1551 1550 1549 1548 1547 1546 1545 1543 1541 1539 1538 1536 1533 1532 1530 1528 1527 1527 1528 1526 1526 1525 1523 1524 1523 1523 1524 1524 1525 1525 1527 1528 1530 1532 1531 1531 1531 1531
1544 1545 1546 1548 1548 1548 1548 1548 1550 1550 1549 1548 1547 1546 1544 1544 1542 1540 1538 1536 1534 1531 1530 1528 1527 1526 1526 1526 1526 1525 1525 1525 1524 1524 1524 1523 1524 1524 1525 1527 1529 1531 1532 1537 1529 1529 1530
1542 1543 1544 1544 1545 1546 1546 1547 1547 1548 1548 1547 1546 1545 1544 1543 1541 1539 1537 1534 1531 1529 1528 1527 1527 1526 1526 1526 1525 1525 1525 1525 1525 1525 1525 1525 1525 1525 1526 1529 1538 1533 1541 1532 1529 1529 1529
1539 1540 1541 1543 1543 1543 1544 1544 1544 1545 1546 1547 1546 1545 1543 1542 1540 1538 1535 1532 1529 1528 1528 1527 1526 1528 1526 1525 1525 1524 1524 1525 1525 1526 1527 1526 1525 1527 1529 1534 1552 1538 1535 1530 1532 1530 1529
1535 1536 1538 1539 1540 1541 1541 1542 1541 1541 1543 1544 1544 1544 1542 1541 1538 1536 1534 1531 1532 1530 1528 1528 1528 1526 1524 1524 1524 1524 1524 1525 1525 1526 1530 1527 1532 1535 1529 1528 1529 1531 1534 1537 1531 1530 1529
1531 1532 1534 1535 1536 1537 1538 1539 1539 1539 1539 1540 1541 1541 1541 1540 1538 1536 1535 1534 1537 1537 1528 1524 1523 1523 1522 1523 1523 1523 1524 1526 1524 1526 1526 1532 1533 1527 1527 1528 1530 1532 1536 1539 1531 1530 1530
1527 1529 1530 1532 1533 1534 1535 1536 1537 1536 1536 1536 1537 1537 1538 1538 1537 1536 1535 1536 1535 1533 1530 1521 1520 1521 1522 1523 1522 1522 1524 1523 1524 1525 1526 1534 1532 1528 1528 1532 1533 1534 1537 1535 1536 1534 1530
1523 1524 1526 1527 1528 1529 1530 1532 1533 1535 1534 1534 1533 1534 1535 1536 1538 1535 1535 1535 1534 1532 1537 1525 1520 1520 1521 1521 1522 1521 1522 1525 1523 1523 1523 1528 1529 1530 1532 1532 1532 1537 1534 1535 1537 1547 1551
1520 1519 1520 1522 1523 1526 1526 1527 1530 1530 1531 1532 1532 1531 1533 1534 1536 1536 1536 1534 1533 1532 1565 1522 1519 1519 1520 1522 1522 1521 1522 1523 1524 1523 1525 1526 1529 1531 1534 1533 1530 1537 1534 1537 1540 1549 1555
1515 1517 1517 1517 1518 1519 1521 1521 1523 1526 1527 1528 1529 1529 1530 1532 1535 1536 1535 1534 1533 1545 1555 1524 1519 1519 1520 1521 1520 1520 1522 1524 1524 1524 1523 1523 1524 1525 1524 1527 1529 1535 1538 1541 1549 1560 1569
1511 1513 1514 1514 1513 1514 1514 1515 1516 1519 1521 1523 1524 1526 1527 1529 1532 1533 1535 1535 1546 1547 1518 1518 1519 1519 1519 1518 1519 1520 1521 1523 1525 1535 1533 1526 1525 1523 1524 1528 1530 1531 1541 1558 1562 1563 1545
1510 1510 1511 1511 1510 1509 1509 1509 1511 1514 1516 1518 1520 1522 1523 1525 1527 1531 1532 1538 1544 1526 1516 1507 1509 1514 1519 1514 1514 1516 1519 1522 1517 1518 1530 1536 1535 1523 1520 1520 1526 1533 1534 1545 1551 1548 1536
1508 1508 1509 1509 1509 1507 1505 1505 1506 1508 1510 1513 1517 1518 1520 1521 1523 1526 1532 1532 1531 1521 1511 1510 1511 1513 1513 1510 1511 1513 1517 1516 1509 1510 1522 1526 1523 1514 1516 1517 1520 1531 1538 1525 1531 1531 1551
1504 1506 1507 1507 1507 1506 1505 1504 1504 1505 1507 1507 1510 1514 1515 1518 1519 1522 1522 1513 1512 1509 1506 1508 1514 1509 1511 1507 1511 1515 1512 1500 1501 1498 1498 1504 1515 1513 1516 1517 1519 1521 1523 1536 1540 1541 1538
1500 1502 1503 1505 1504 1504 1504 1503 1503 1503 1505 1506 1506 1508 1508 1511 1515 1514 1503 1504 1503 1505 1507 1508 1508 1510 1507 1503 1503 1506 1500 1495 1491 1491 1495 1500 1505 1521 1517 1515 1512 1523 1523 1524 1524 1526 1524
1495 1498 1499 1500 1502 1501 1502 1502 1502 1502 1503 1503 1505 1504 1504 1507 1508 1498 1493 1496 1498 1498 1501 1502 1502 1502 1502 1503 1499 1498 1494 1489 1488 1489 1495 1494 1501 1511 1506 1497 1497 1500 1496 1501 1514 1512 1518
1490 1493 1496 1497 1499 1499 1500 1501 1501 1500 1500 1500 1503 1503 1501 1501 1498 1491 1490 1487 1490 1492 1492 1494 1493 1492 1496 1493 1497 1487 1482 1483 1485 1486 1490 1493 1501 1513 1501 1505 1500 1496 1494 1491 1494 1500 1490
1485 1487 1490 1493 1494 1496 1497 1499 1500 1498 1498 1500 1502 1503 1501 1501 1500 1502 1499 1494 1488 1489 1489 1490 1488 1489 1490 1483 1484 1470 1472 1478 1476 1475 1480 1481 1487 1488 1470 1470 1476 1492 1486 1481 1483 1488 1480
1479 1481 1485 1487 1489 1492 1494 1496 1498 1497 1499 1501 1500 1501 1503 1502 1503 1502 1504 1502 1498 1496 1494 1494 1493 1498 1498 1488 1477 1470 1471 1471 1475 1479 1480 1475 1479 1478 1462 1458 1467 1465 1464 1468 1468 1458 1470
1473 1474 1478 1481 1484 1486 1489 1492 1495 1495 1497 1499 1501 1501 1502 1504 1502 1503 1502 1501 1499 1501 1501 1498 1498 1500 1499 1498 1497 1494 1493 1490 1485 1483 1481 1479 1465 1466 1464 1456 1461 1465 1459 1457 1454 1452 1451
1467 1471 1473 1475 1477 1480 1483 1487 1491 1492 1495 1495 1498 1499 1500 1500 1502 1501 1500 1499 1498 1501 1500 1499 1500 1499 1497 1497 1497 1494 1493 1492 1490 1490 1485 1484 1477 1471 1455 1462 1466 1464 1445 1450 1449 1448 1449
1462 1466 1468 1469 1471 1475 1478 1481 1484 1486 1490 1493 1494 1498 1498 1495 1497 1497 1496 1496 1496 1497 1498 1499 1498 1498 1497 1493 1492 1490 1489 1486 1485 1483 1484 1482 1479 1476 1468 1468 1462 1440 1440 1437 1437 1438 1444
1456 1459 1462 1465 1468 1470 1473 1476 1478 1482 1485 1488 1490 1494 1494 1492 1491 1493 1494 1494 1494 1494 1493 1495 1495 1494 1495 1493 1493 1487 1482 1479 1473 1469 1472 1474 1476 1470 1469 1462 1449 1440 1439 1439 1439 1439 1437
1450 1454 1457 1460 1463 1466 1468 1471 1474 1477 1480 1483 1484 1488 1489 1490 1487 1485 1488 1488 1492 1493 1492 1492 1490 1491 1492 1492 1492 1489 1481 1475 1471 1467 1463 1467 1470 1469 1463 1456 1450 1442 1438 1435 1435 1439 1432
1444 1448 1451 1455 1457 1460 1463 1466 1469 1472 1475 1478 1477 1481 1484 1484 1481 1482 1484 1484 1484 1488 1490 1488 1489 1490 1490 1487 1487 1485 1479 1471 1470 1465 1466 1464 1464 1459 1458 1450 1447 1442 1437 1436 1451 1438 1428
1438 1442 1446 1448 1453 1455 1458 1461 1463 1466 1470 1473 1473 1475 1477 1475 1477 1478 1479 1480 1481 1483 1485 1487 1489 1487 1487 1486 1483 1478 1472 1468 1466 1465 1465 1463 1460 1454 1451 1446 1443 1441 1438 1440 1432 1426 1425
1434 1437 1440 1443 1447 1450 1453 1455 1457 1461 1463 1466 1469 1469 1468 1473 1470 1470 1473 1474 1477 1478 1480 1482 1480 1481 1482 1486 1485 1482 1480 1476 1472 1470 1460 1459 1456 1455 1452 1444 1441 1440 1440 1437 1436 1432 1428